Weather Roundup
Issued by NWS Chicago, IL

Home | Current Version | Previous Version | Text Only | Print | Product List | Glossary Off
Versions: 1 2 3 4 5 6 7 8 9 10 11 12 13 14 15 16 17 18 19 20 21 22 23 24 25 26 27 28 29 30 31 32 33 34 35 36 37 38 39 40 41 42 43 44 45 46 47 48 49 50

000
NZUS59 KLOT 220406
HRRLOT

CHICAGO AREA WEATHER ROUNDUP
NATIONAL WEATHER SERVICE CHICAGO/ROMEOVILLE IL
1100 PM CDT TUE OCT 21 2014

NOTE: "FAIR" INDICATES FEW OR NO CLOUDS BELOW 12,000 FEET WITH NO
SIGNIFICANT WEATHER AND/OR OBSTRUCTIONS TO VISIBILITY.

* THESE STATIONS ARE NOT UNDER NWS QUALITY CONTROL. THEY ALSO MAY NOT
  REPORT WEATHER SUCH AS PRECIPITATION OR FOG.

ILZ005-006-012>014-019>023-220500-
NORTHEAST ILLINOIS

CITY           SKY/WX    TMP DP  RH WIND       PRES   REMARKS
OHARE          MOCLDY    47  38  71 N3        30.25F
MIDWAY         CLOUDY    51  39  63 NE8       30.25F
AURORA         CLEAR     36  32  85 CALM      30.27S
LANSING*       CLOUDY    49  39  69 E7        30.25S
JOLIET*        CLOUDY    47  38  71 NE3       30.26F
WAUKEGAN       MOCLDY    44  38  79 N3        30.26S
DUPAGE AIRPORT MOCLDY    42  36  79 N6        30.26S
WHEELING       CLOUDY    50  37  61 E3        30.27S
KANKAKEE*      CLOUDY    48  40  73 N3        30.26S
MORRIS*        CLOUDY    45  39  80 CALM      30.26S
LEWIS AIRPORT* CLOUDY    46  37  70 NE3       30.26S
NORTHERLY IS     N/A     50  41  71 NE12        N/A
$$

WIZ051-052-058>065-066-070>072-220500-
SOUTHEAST WISCONSIN

CITY           SKY/WX    TMP DP  RH WIND       PRES   REMARKS
MILWAUKEE      CLEAR     44  36  73 NE9       30.27F
KENOSHA*       MOCLDY    36  34  92 CALM      30.27S
RACINE*        CLEAR     43  37  79 NE7       30.28F
BURLINGTON     PTCLDY    29  29 100 CALM      30.28S FOG
WAUKESHA       CLEAR     34  32  93 CALM      30.29S
WEST BEND      CLEAR     32  30  93 CALM      30.28S FOG
$$

INZ001>003-010>013-019-020-220500-
NORTHWEST INDIANA

CITY           SKY/WX    TMP DP  RH WIND       PRES   REMARKS
GARY*          CLOUDY    50  38  63 E7        30.26S
MICHIGAN CITY* NOT AVBL
RENSSELAER*    NOT AVBL
VALPARAISO     CLEAR     39  35  86 NE5       30.26S
$$

LMZ740>746-220500-
SOUTHERN LAKE MICHIGAN

STATION/POSITION TIME  SKY/WX   TEMP WIND        PRES    VSBY
                                AIR  DIR/SP/G
                 (UTC)          (F)  (DEG/KT/KT) (MB)    (MI)
HARRISON CRIB    0400            50   30/ 12/ 15   N/A
BURNHAM HARBOR   0400            50   50/ 10/ 13   N/A
CALUMET HARBOR   0400            51   20/  7/ 10 1023.2F
BURNS HARBOR     NOT AVBL
MICHIGAN CITY    0400            44  110/  7/  7   N/A
$$

ABBREVIATIONS USED IN REMARKS
   TC - TEMPERATURE IN CELSIUS
  WCI - WIND CHILL INDEX
   HX - HEAT INDEX
  VSB - VISIBILITY
$$



USA.gov is the U.S. government's official web portal to all federal, state and local government web resources and services.